Regional Weather Roundup
Issued by NWS Newport/Morehead, NC

Current Version | Previous Version | Text Only | Print | Product List | Glossary On
Versions: 1 2 3 4 5 6 7 8 9 10 11 12 13 14 15 16 17 18 19 20 21 22 23 24 25 26 27 28 29 30 31 32 33 34 35 36 37 38 39 40 41 42 43 44 45 46 47 48 49 50
000
ASUS42 KMHX 191910
RWRMHX
WEATHER ROUNDUP FOR EASTERN NORTH CAROLINA
NATIONAL WEATHER SERVICE NEWPORT/MOREHEAD CITY NC
300 PM EDT FRI SEP 19 2014

NOTE: "FAIR" INDICATES FEW OR NO CLOUDS BELOW 12,000 FEET
WITH NO SIGNIFICANT WEATHER AND/OR OBSTRUCTIONS TO VISIBILITY

NCZ015>017-031-032-045>047-102-103-192000-
NORTH COAST

CITY           SKY/WX    TMP DP  RH WIND       PRES   REMARKS
EDENTON        MOSUNNY   78  60  55 E12G17    30.20S
ELIZABETH CITY SUNNY     77  58  51 E14       30.21S
KITTY HAWK     CLEAR     77  57  50 E7G16     30.20S
MANTEO         SUNNY     76  58  54 NE15      30.20F

$$

NCZ045>047-081-094-103-104-192000-
CENTRAL COAST

CITY           SKY/WX    TMP DP  RH WIND       PRES   REMARKS
FRISCO         PTSUNNY   73  63  70 NE10G22   30.17S
SWANQUARTER      N/A     77 N/A N/A NE10G17   30.15R

$$

NCZ095-097-098-100-101-192000-
SOUTHERN COAST

CITY           SKY/WX    TMP DP  RH WIND       PRES   REMARKS
BEAUFORT       CLOUDY    78  64  61 NE10G22   30.15S
CEDAR ISLAND     N/A     75 N/A N/A NE17G26   30.21S
JACKSONVILLE   PTSUNNY   78  62  57 E15       30.15R
NEWPORT        NOT AVBL
PINEY ISLAND   MOCLDY    78  63  59 NE18G25   30.16S
WILMINGTON     PTSUNNY   79  66  64 E15G23    30.12F


$$

NCZ011>013-027>030-043-044-078>080-089-090>093-098-192000-
COASTAL PLAIN

CITY           SKY/WX    TMP DP  RH WIND       PRES   REMARKS
AHOSKIE        MOSUNNY   75  60  58 E5        30.20F
CLINTON        MOSUNNY   80  62  54 E6        30.15S
ELIZABETHTOWN  PTSUNNY   80  63  55 E10       30.13F
GOLDSBORO      NOT AVBL
GREENVILLE     SUNNY     81  59  47 E14       30.18F
HAVELOCK       PTSUNNY   79  64  60 NE16G25   30.17S
KENANSVILLE    SUNNY     79  58  48 E7G16     30.16S
KINSTON        SUNNY     82  59  44 NE12      30.17S
NEW BERN       MOSUNNY   80  57  45 E9        30.18S
RICHLANDS      PTSUNNY   81  61  50 NE15G22   30.16S
ROANOKE RAPIDS NOT AVBL
ROCKY MOUNT    CLOUDY    81  59  47 E10G18    30.18S
WASHINGTON     SUNNY     79  59  51 NE12      30.18S
WHITEVILLE     PTSUNNY   81  65  58 E13       30.11F

$$

AMZ130-135-150-152-154-156-158-170-250-252-270-ANZ085-086-088-633-658-670-192000-
MARINE OBSERVATIONS

STATION/POSITION TIME  TEMP    WIND        PRES    WAVE   SWELL
                       AIR SEA DIR/SP/G            HT/PER HT/PER
                 (UTC) (F)     (DEG/KT/KT) (MB)    (FT/S) (FT/S)
CHESAPEAKE LIGHT 1800   71      60/ 12/ 13 1024.3
BUOY 44014       1900   74 76   50/ 12/ 16 1022.7    4/ 8   3/ 8
DUCK             1900   73 75   50/ 13/ 16 1022.5
2E DUCK          1900                        N/A     4/10   2/11
OREGON INLET     1900   75 73   40/ 12/ 17 1022.3
BUOY 44095       1900      76                N/A     5/ 9   2/11
20E OREGON INLET NOT AVBL
HATTERAS CG      1900   75 75   40/ 14/ 19 1021.9
DIAMOND BUOY     1900   78      60/ 17/ 21 1020.8    5/ 7   2/10
CAPE LOOKOUT     1800   73      90/ 22/ 33 1021.0
BEAUFORT LAB     1900   76 77   40/ 12/ 16 1020.3
30 SE NEW RIVER  1900   80 83   80/ 19/ 21 1019.8    5/ 6   2/10
5 SE WRIGHTSVILL 1800   74 80   50/ 19/ 23   N/A
BUOY 41002       1837   79 82   70/ 14/ 17 1017.8    4/ 5   2/ 8
BUOY 41004       1900   78 82   90/ 23/ 27 1016.6    5/ 6   2/ 9

$$


USA.gov is the U.S. government's official web portal to all federal, state and local government web resources and services.